Weather History for West Palm Beach, FL

Change the Weather History Date:

Monday, October 28, 2013

  Actual Average Record
Temperature  
Mean Temperature 75 °F 76 °F  
Max Temperature 85 °F 83 °F 91 °F (1972)
Min Temperature 64 °F 69 °F 48 °F (1890)
Degree Days  
Heating Degree Days 0 0  
Month to date heating degree days 0 0  
Since 1 July heating degree days 0 0  
Cooling Degree Days 10 11  
Month to date cooling degree days 429 381  
Year to date cooling degree days 3802 3589  
Growing Degree Days 24 (Base 50)    
Moisture  
Dew Point 62 °F    
Average Humidity 65    
Maximum Humidity 87    
Minimum Humidity 43    
Precipitation  
Precipitation 0.00 in 0.15 in 7.52 in (1895)
Month to date precipitation 1.13 4.72  
Year to date precipitation 57.85 53.79  
Snow  
Snow 0.00 in - - ()
Month to date snowfall 0.0  
Since 1 July snowfall 0.0  
Since 1 September snowfall 0.0  
Snow Depth 0.00 in    
Sea Level Pressure  
Sea Level Pressure 30.11 in    
Wind  
Wind Speed 7 mph (NE)    
Max Wind Speed 15 mph    
Max Gust Speed 22 mph    
Visibility 10 miles    
Events      
T = Trace of Precipitation, MM = Missing Value Source: NWS Daily Summary

Daily Weather History Graph

Daily Weather History Graph

Search for Another Location

Airport:

Trip Planner

Search our weather history database for the weather conditions in past years. The results will help you decide how hot, cold, wet, or windy it might be!

Date:

Astronomy

Oct. 28, 2013 Rise Set
Actual Time 7:27 AM EDT 6:40 PM EDT
Civil Twilight 7:03 AM EDT 7:04 PM EDT
Nautical Twilight 6:36 AM EDT 7:31 PM EDT
Astronomical Twilight 6:09 AM EDT 7:58 PM EDT
Moon 1:51 AM EDT (10/28) 2:51 PM EDT (10/28)
Length of Visible Light 12h 00m
Length of Day
11h 12m
Waning Crescent, 34% of the Moon is Illuminated
Oct 28
Waning Crescent
Nov 3
New
Nov 10
First Quarter
Nov 17
Full
Nov 25
Last Quarter

Hourly Weather History & Observations

Time (EDT) Temp. Heat Index Dew Point Humidity Pressure Visibility Wind Dir Wind Speed Gust Speed Precip Events Conditions
12:53 AM 66.9 °F - 63.0 °F 87% 30.09 in 10.0 mi WNW 4.6 mph - N/A   Scattered Clouds
1:53 AM 66.9 °F - 63.0 °F 87% 30.08 in 10.0 mi NW 4.6 mph - N/A   Scattered Clouds
2:53 AM 68.0 °F - 64.0 °F 87% 30.07 in 10.0 mi Calm Calm - N/A   Scattered Clouds
3:53 AM 66.9 °F - 63.0 °F 87% 30.06 in 10.0 mi NNW 3.5 mph - N/A   Partly Cloudy
4:53 AM 66.9 °F - 63.0 °F 87% 30.06 in 10.0 mi NW 3.5 mph - N/A   Partly Cloudy
5:53 AM 66.9 °F - 63.0 °F 87% 30.07 in 10.0 mi Calm Calm - N/A   Partly Cloudy
6:53 AM 64.0 °F - 61.0 °F 90% 30.08 in 10.0 mi Calm Calm - N/A   Scattered Clouds
7:53 AM 66.0 °F - 63.0 °F 90% 30.10 in 10.0 mi Calm Calm - N/A   Scattered Clouds
8:53 AM 72.0 °F - 66.0 °F 81% 30.12 in 10.0 mi NNW 3.5 mph - N/A   Scattered Clouds
9:53 AM 81.0 °F 81.9 °F 62.1 °F 52% 30.13 in 10.0 mi East 10.4 mph - N/A   Scattered Clouds
10:53 AM 82.0 °F 82.4 °F 60.1 °F 47% 30.15 in 10.0 mi East 11.5 mph - N/A   Scattered Clouds
11:53 AM 82.9 °F 83.3 °F 61.0 °F 47% 30.14 in 10.0 mi ESE 8.1 mph - N/A   Scattered Clouds
12:53 PM 84.0 °F 83.8 °F 59.0 °F 43% 30.13 in 10.0 mi East 9.2 mph 17.3 mph N/A   Scattered Clouds
1:53 PM 84.0 °F 84.4 °F 61.0 °F 46% 30.11 in 10.0 mi ESE 10.4 mph - N/A   Partly Cloudy
2:53 PM 84.0 °F 84.0 °F 60.1 °F 44% 30.09 in 10.0 mi NE 9.2 mph - N/A   Partly Cloudy
3:53 PM 84.0 °F 84.0 °F 60.1 °F 44% 30.09 in 10.0 mi ENE 11.5 mph - N/A   Scattered Clouds
4:53 PM 82.9 °F 84.0 °F 63.0 °F 51% 30.09 in 10.0 mi ENE 13.8 mph - N/A   Partly Cloudy
5:53 PM 82.0 °F 83.1 °F 63.0 °F 52% 30.10 in 10.0 mi NNE 8.1 mph - N/A   Partly Cloudy
6:53 PM 80.1 °F 81.5 °F 63.0 °F 56% 30.11 in 10.0 mi NNE 8.1 mph - N/A   Scattered Clouds
7:53 PM 80.1 °F 81.5 °F 63.0 °F 56% 30.12 in 10.0 mi NE 6.9 mph - N/A   Scattered Clouds
8:53 PM 80.1 °F 81.5 °F 63.0 °F 56% 30.13 in 10.0 mi ENE 8.1 mph - N/A   Scattered Clouds
9:53 PM 80.1 °F 81.7 °F 64.0 °F 58% 30.14 in 10.0 mi NE 9.2 mph - N/A   Scattered Clouds
10:53 PM 80.1 °F 81.2 °F 62.1 °F 54% 30.15 in 10.0 mi NE 6.9 mph - N/A   Scattered Clouds
11:53 PM 79.0 °F - 63.0 °F 58% 30.14 in 10.0 mi East 11.5 mph - N/A   Scattered Clouds